Voltar ao catálogo

IRIDIUM 33 DEB

AtivoPO
NORAD 35488·DEBRIS·🇺🇸 United States

Lançado Sep 14, 1997 de Baikonur Cosmodrome

Loading…

Próximas Passagens (próximas 24 horas)

TLE

AtualizadoSource: Space-Track

Época: Sep 14, 2026, 04:58 UTC

1 35488U 97051QJ  26257.20757144  .00005470  00000-0  58424-3 0  9994
2 35488  86.3297 173.3073 0025186 135.9366 224.3873 14.88384020923577

Acompanhe IRIDIUM 33 DEB em tempo real com AllMySat

Download on the App Store